, MS

(GMT )
West Delta

Weather History for KDLP - August, 2014

Change the Weather History Date:

Sunday, August 17, 2014

  Actual Average Record
Temperature  
Mean Temperature 88 °F -  
Max Temperature 96 °F - - ()
Min Temperature 80 °F - - ()
Cooling Degree Days 23    
Growing Degree Days 38 (Base 50)    
Moisture  
Dew Point 76 °F    
Average Humidity 71    
Maximum Humidity 79    
Minimum Humidity 53    
Precipitation  
Precipitation 0.00 in - - ()
Sea Level Pressure  
Sea Level Pressure 30.05 in    
Wind  
Wind Speed 10 mph (SW)    
Max Wind Speed 22 mph    
Max Gust Speed 26 mph    
Visibility 10 miles    
Events      
T = Trace of Precipitation, MM = Missing Value Source: NWS Daily Summary

Daily Weather History Graph

Daily Weather History Graph

Search for Another Location

Airport or City:

Trip Planner

Search our weather history database for the weather conditions in past years. The results will help you decide how hot, cold, wet, or windy it might be!

Date:

Astronomy

Aug. 17, 2014 Rise Set
Actual Time 6:27 AM CDT 7:36 PM CDT
Civil Twilight 6:03 AM CDT 8:00 PM CDT
Nautical Twilight 5:33 AM CDT 8:30 PM CDT
Astronomical Twilight 5:03 AM CDT 9:00 PM CDT
Moon No Moon Rise 1:36 PM CDT (8/17)
Length of Visible Light 13h 57m
Length of Day
13h 08m
Waning Gibbous, 48% of the Moon is Illuminated
Aug 17
Waning Gibbous
Aug 25
New
Sep 2
First Quarter
Sep 8
Full
Sep 15
Last Quarter

Hourly Weather History & Observations

Time (CDT) Temp. Heat Index Dew Point Humidity Pressure Visibility Wind Dir Wind Speed Gust Speed Precip Events Conditions
12:15 AM 86.0 °F 96.9 °F 77.0 °F 74% 30.04 in 10.0 mi SW 9.2 mph - N/A   Partly Cloudy
12:55 AM 86.0 °F 95.1 °F 75.2 °F 70% 30.03 in 10.0 mi SW 12.7 mph - N/A   Clear
1:15 AM 86.0 °F 96.9 °F 77.0 °F 74% 30.03 in 10.0 mi SW 9.2 mph - N/A   Clear
1:35 AM 84.2 °F 94.1 °F 77.0 °F 79% 30.03 in 10.0 mi SW 12.7 mph - N/A   Clear
1:55 AM 84.2 °F 94.1 °F 77.0 °F 79% 30.02 in 10.0 mi SW 12.7 mph - N/A   Clear
2:15 AM 84.2 °F 94.1 °F 77.0 °F 79% 30.02 in 10.0 mi SW 10.4 mph - N/A   Clear
2:35 AM 84.2 °F 92.3 °F 75.2 °F 74% 30.02 in 10.0 mi SW 10.4 mph - N/A   Partly Cloudy
2:55 AM 86.0 °F 95.1 °F 75.2 °F 70% 30.01 in 10.0 mi SW 11.5 mph - N/A   Clear
3:15 AM 86.0 °F 95.1 °F 75.2 °F 70% 30.01 in 10.0 mi SW 12.7 mph - N/A   Clear
3:35 AM 86.0 °F 95.1 °F 75.2 °F 70% 30.02 in 10.0 mi SW 12.7 mph - N/A   Clear
3:55 AM 86.0 °F 95.1 °F 75.2 °F 70% 30.02 in 10.0 mi SW 11.5 mph - N/A   Clear
4:15 AM 86.0 °F 95.1 °F 75.2 °F 70% 30.02 in 10.0 mi SW 12.7 mph - N/A   Clear
4:35 AM 86.0 °F 95.1 °F 75.2 °F 70% 30.02 in 10.0 mi SW 12.7 mph - N/A   Clear
4:55 AM 86.0 °F 95.1 °F 75.2 °F 70% 30.02 in 10.0 mi SW 10.4 mph 16.1 mph N/A   Partly Cloudy
5:15 AM 86.0 °F 96.9 °F 77.0 °F 74% 30.04 in 10.0 mi SW 10.4 mph - N/A   Partly Cloudy
5:35 AM 86.0 °F 95.1 °F 75.2 °F 70% 30.04 in 10.0 mi SW 11.5 mph - N/A   Partly Cloudy
5:55 AM 86.0 °F 95.1 °F 75.2 °F 70% 30.04 in 10.0 mi SW 10.4 mph - N/A   Scattered Clouds
6:15 AM 84.2 °F 94.1 °F 77.0 °F 79% 30.05 in 10.0 mi SW 8.1 mph 15.0 mph N/A   Mostly Cloudy
6:35 AM 84.2 °F 94.1 °F 77.0 °F 79% 30.05 in 10.0 mi SW 11.5 mph - N/A   Mostly Cloudy
6:55 AM 84.2 °F 94.1 °F 77.0 °F 79% 30.05 in 10.0 mi SW 13.8 mph - N/A   Mostly Cloudy
7:15 AM 86.0 °F 96.9 °F 77.0 °F 74% 30.05 in 10.0 mi SW 13.8 mph - N/A   Scattered Clouds
7:35 AM 86.0 °F 96.9 °F 77.0 °F 74% 30.05 in 10.0 mi SW 12.7 mph - N/A   Partly Cloudy
7:55 AM 86.0 °F 95.1 °F 75.2 °F 70% 30.06 in 10.0 mi SW 10.4 mph 17.3 mph N/A   Partly Cloudy
8:15 AM 86.0 °F 95.1 °F 75.2 °F 70% 30.06 in 10.0 mi SW 11.5 mph - N/A   Clear
8:35 AM 86.0 °F 96.9 °F 77.0 °F 74% 30.06 in 10.0 mi SW 10.4 mph - N/A   Partly Cloudy
8:55 AM 86.0 °F 96.9 °F 77.0 °F 74% 30.08 in 10.0 mi SW 12.7 mph - N/A   Scattered Clouds
9:15 AM 86.0 °F 95.1 °F 75.2 °F 70% 30.09 in 10.0 mi SW 11.5 mph - N/A   Scattered Clouds
9:35 AM 82.4 °F 89.5 °F 75.2 °F 79% 30.09 in 8.0 mi Calm Calm 13.8 mph N/A   Mostly Cloudy
9:55 AM 84.2 °F 92.3 °F 75.2 °F 74% 30.10 in 10.0 mi Variable 3.5 mph - N/A   Mostly Cloudy
10:15 AM 95.0 °F 109.7 °F 77.0 °F 56% 30.09 in 10.0 mi WSW 5.8 mph - N/A   Clear
10:35 AM 91.4 °F 105.1 °F 77.0 °F 63% 30.09 in 10.0 mi Variable 3.5 mph 13.8 mph N/A   Clear
11:15 AM 82.4 °F 87.2 °F 71.6 °F 70% 30.08 in 10.0 mi SW 11.5 mph 19.6 mph N/A   Scattered Clouds
11:35 AM 86.0 °F 90.4 °F 69.8 °F 58% 30.07 in 9.0 mi SW 5.8 mph 11.5 mph N/A   Partly Cloudy
11:55 AM 84.2 °F 90.9 °F 73.4 °F 70% 30.07 in 10.0 mi SW 6.9 mph - N/A   Clear
12:15 PM 84.2 °F 90.9 °F 73.4 °F 70% 30.06 in 10.0 mi SW 8.1 mph 15.0 mph N/A   Clear
12:35 PM 86.0 °F 95.1 °F 75.2 °F 70% 30.06 in 10.0 mi SW 9.2 mph - N/A   Clear
12:55 PM 84.2 °F 92.3 °F 75.2 °F 74% 30.06 in 10.0 mi SW 5.8 mph 12.7 mph N/A   Partly Cloudy
1:15 PM 84.2 °F 94.1 °F 77.0 °F 79% 30.05 in 10.0 mi SSW 9.2 mph - N/A   Clear
1:35 PM 86.0 °F 96.9 °F 77.0 °F 74% 30.06 in 10.0 mi SSW 5.8 mph - N/A   Mostly Cloudy
1:55 PM 93.2 °F 110.2 °F 78.8 °F 63% 30.07 in 10.0 mi WSW 5.8 mph - N/A   Partly Cloudy
2:15 PM 96.8 °F 112.2 °F 77.0 °F 53% 30.06 in 10.0 mi West 5.8 mph - N/A   Clear
2:35 PM 95.0 °F 112.2 °F 78.8 °F 59% 30.05 in 10.0 mi WSW 6.9 mph - N/A   Scattered Clouds
2:55 PM 87.8 °F 99.7 °F 77.0 °F 70% 30.04 in 10.0 mi WSW 6.9 mph - N/A   Scattered Clouds
3:15 PM 86.0 °F 96.9 °F 77.0 °F 74% 30.03 in 10.0 mi SW 10.4 mph - N/A   Partly Cloudy
3:35 PM 86.0 °F 99.3 °F 78.8 °F 79% 30.03 in 10.0 mi SW 6.9 mph - N/A   Scattered Clouds
3:55 PM 86.0 °F 99.3 °F 78.8 °F 79% 30.04 in 10.0 mi SW 9.2 mph - N/A   Partly Cloudy
4:15 PM 86.0 °F 99.3 °F 78.8 °F 79% 30.04 in 10.0 mi SW 5.8 mph - N/A   Clear
4:35 PM 89.6 °F 99.8 °F 75.2 °F 62% 30.03 in 10.0 mi SW 8.1 mph - N/A   Partly Cloudy
4:55 PM 89.6 °F 102.2 °F 77.0 °F 66% 30.03 in 10.0 mi SW 6.9 mph - N/A   Clear
5:15 PM 96.8 °F 112.2 °F 77.0 °F 53% 30.04 in 10.0 mi WSW 6.9 mph - N/A   Partly Cloudy
5:35 PM 96.8 °F 112.2 °F 77.0 °F 53% 30.04 in 10.0 mi WSW 8.1 mph - N/A   Partly Cloudy
5:55 PM 96.8 °F 112.2 °F 77.0 °F 53% 30.05 in 10.0 mi WSW 6.9 mph - N/A   Partly Cloudy
6:15 PM 86.0 °F 93.4 °F 73.4 °F 66% 30.05 in 10.0 mi NNW 21.9 mph - N/A   Scattered Clouds
6:35 PM 80.6 °F 85.4 °F 73.4 °F 79% 30.04 in 10.0 mi North 18.4 mph 26.5 mph N/A   Mostly Cloudy
6:55 PM 82.4 °F 88.2 °F 73.4 °F 74% 30.04 in 10.0 mi Variable 6.9 mph 17.3 mph N/A   Overcast
7:15 PM 80.6 °F 84.6 °F 71.6 °F 74% 30.04 in 8.0 mi NNW 10.4 mph 17.3 mph N/A   Mostly Cloudy
7:35 PM 82.4 °F 89.5 °F 75.2 °F 79% 30.04 in 10.0 mi NNW 13.8 mph - N/A   Clear
7:55 PM 82.4 °F 89.5 °F 75.2 °F 79% 30.05 in 10.0 mi North 9.2 mph - N/A   Clear
8:15 PM 82.4 °F 89.5 °F 75.2 °F 79% 30.05 in 10.0 mi Variable 3.5 mph - N/A   Partly Cloudy
8:35 PM 86.0 °F 95.1 °F 75.2 °F 70% 30.04 in 10.0 mi Calm Calm - N/A   Clear
8:55 PM 84.2 °F 92.3 °F 75.2 °F 74% 30.03 in 10.0 mi Variable 6.9 mph - N/A   Clear
9:15 PM 84.2 °F 92.3 °F 75.2 °F 74% 30.03 in 10.0 mi South 6.9 mph - N/A   Clear
9:35 PM 84.2 °F 92.3 °F 75.2 °F 74% 30.04 in 10.0 mi South 9.2 mph - N/A   Clear
9:55 PM 84.2 °F 90.9 °F 73.4 °F 70% 30.03 in 10.0 mi South 10.4 mph - N/A   Clear
10:15 PM 84.2 °F 90.9 °F 73.4 °F 70% 30.04 in - South 8.1 mph - N/A   Clear
10:35 PM 86.0 °F 95.1 °F 75.2 °F 70% 30.05 in 10.0 mi South 8.1 mph - N/A   Clear
10:55 PM 87.8 °F 97.6 °F 75.2 °F 66% 30.05 in 10.0 mi South 8.1 mph - N/A   Clear
11:15 PM 86.0 °F 96.9 °F 77.0 °F 74% 30.05 in 10.0 mi South 6.9 mph - N/A   Partly Cloudy
11:35 PM 87.8 °F 99.7 °F 77.0 °F 70% 30.04 in 10.0 mi South 8.1 mph - N/A   Scattered Clouds
11:55 PM 91.4 °F 105.1 °F 77.0 °F 63% 30.04 in 10.0 mi South 10.4 mph - N/A   Partly Cloudy